| time (UTC) | temp F | wind direction | speed MPH | gust MPH | rain 1hr in | rain 24hr in | rain mn in | humidity % | barometer mb |
| 20260905051004 | 79 | 0 | 0.0 | 4.0 | 0.00 | 0.00 | 0.00 | 43 | 1018.5 |
| 20260905050503 | 78 | 83 | 1.0 | 3.0 | 0.00 | 0.00 | 0.00 | 43 | 1018.4 |
| 20260905050004 | 78 | 0 | 0.0 | 2.0 | 0.00 | 0.00 | 0.00 | 44 | 1018.5 |
| 20260905045503 | 77 | 0 | 0.0 | 3.0 | 0.00 | 0.00 | 0.00 | 44 | 1018.4 |
| 20260905045004 | 77 | 0 | 0.0 | 3.0 | 0.00 | 0.00 | 0.00 | 45 | 1018.4 |
| 20260905044504 | 77 | 9 | 1.0 | 4.0 | 0.00 | 0.00 | 0.00 | 45 | 1018.4 |
| 20260905044003 | 76 | 0 | 0.0 | 4.0 | 0.00 | 0.00 | 0.00 | 45 | 1018.3 |
| 20260905043504 | 76 | 0 | 0.0 | 4.0 | 0.00 | 0.00 | 0.00 | 45 | 1018.3 |
| 20260905043003 | 76 | 0 | 0.0 | 4.0 | 0.00 | 0.00 | 0.00 | 45 | 1018.2 |
| 20260905042503 | 76 | 153 | 1.0 | 3.0 | 0.00 | 0.00 | 0.00 | 45 | 1018.2 |
| 20260905042003 | 76 | 164 | 1.0 | 3.0 | 0.00 | 0.00 | 0.00 | 46 | 1018.1 |
| 20260905041504 | 76 | 220 | 1.0 | 3.0 | 0.00 | 0.00 | 0.00 | 46 | 1018.1 |
| 20260905041003 | 76 | 203 | 1.0 | 3.0 | 0.00 | 0.00 | 0.00 | 46 | 1018.0 |
| 20260905040503 | 76 | 152 | 1.0 | 3.0 | 0.00 | 0.00 | 0.00 | 46 | 1017.9 |
| 20260905040004 | 76 | 0 | 0.0 | 3.0 | 0.00 | 0.00 | 0.00 | 46 | 1017.8 |
| 20260905035503 | 76 | 188 | 1.0 | 3.0 | 0.00 | 0.00 | 0.00 | 46 | 1017.7 |
| 20260905035004 | 76 | 0 | 0.0 | 3.0 | 0.00 | 0.00 | 0.00 | 46 | 1017.7 |
| 20260905034504 | 76 | 0 | 0.0 | 3.0 | 0.00 | 0.00 | 0.00 | 46 | 1017.6 |
| 20260905034005 | 76 | 0 | 0.0 | 4.0 | 0.00 | 0.00 | 0.00 | 46 | 1017.6 |
| 20260905033503 | 76 | 0 | 0.0 | 4.0 | 0.00 | 0.00 | 0.00 | 46 | 1017.7 |
| 20260905033004 | 76 | 32 | 2.0 | 4.0 | 0.00 | 0.00 | 0.00 | 46 | 1017.7 |
| 20260905032503 | 76 | 0 | 0.0 | 3.0 | 0.00 | 0.00 | 0.00 | 46 | 1017.7 |
| 20260905032003 | 76 | 0 | 0.0 | 3.0 | 0.00 | 0.00 | 0.00 | 46 | 1017.6 |
| 20260905031504 | 76 | 181 | 1.0 | 3.0 | 0.00 | 0.00 | 0.00 | 46 | 1017.5 |
| 20260905031003 | 76 | 168 | 1.0 | 2.0 | 0.00 | 0.00 | 0.00 | 46 | 1017.5 |
| 20260905030503 | 76 | 0 | 0.0 | 4.0 | 0.00 | 0.00 | 0.00 | 45 | 1017.7 |
| 20260905030003 | 76 | 177 | 1.0 | 4.0 | 0.00 | 0.00 | 0.00 | 45 | 1017.6 |
| 20260905025504 | 76 | 0 | 0.0 | 2.0 | 0.00 | 0.00 | 0.00 | 45 | 1017.6 |
| 20260905025003 | 76 | 208 | 1.0 | 4.0 | 0.00 | 0.00 | 0.00 | 45 | 1017.4 |
| 20260905024503 | 76 | 236 | 1.0 | 4.0 | 0.00 | 0.00 | 0.00 | 45 | 1017.4 |
| 20260905024005 | 76 | 271 | 2.0 | 4.0 | 0.00 | 0.00 | 0.00 | 45 | 1017.3 |
| 20260905023503 | 76 | 249 | 2.0 | 5.0 | 0.00 | 0.00 | 0.00 | 44 | 1017.3 |
| 20260905023003 | 77 | 198 | 1.0 | 5.0 | 0.00 | 0.00 | 0.00 | 43 | 1017.4 |
| 20260905022503 | 77 | 201 | 2.0 | 5.0 | 0.00 | 0.00 | 0.00 | 43 | 1017.4 |
| 20260905022004 | 77 | 22 | 2.0 | 4.0 | 0.00 | 0.00 | 0.00 | 43 | 1017.5 |
| 20260905021503 | 77 | 61 | 1.0 | 5.0 | 0.00 | 0.00 | 0.00 | 43 | 1017.4 |
| 20260905021003 | 77 | 0 | 0.0 | 5.0 | 0.00 | 0.00 | 0.00 | 43 | 1017.5 |
| 20260905020504 | 77 | 356 | 1.0 | 4.0 | 0.00 | 0.00 | 0.00 | 43 | 1017.3 |
| 20260905020003 | 78 | 0 | 0.0 | 4.0 | 0.00 | 0.00 | 0.00 | 42 | 1017.3 |
| 20260905015503 | 78 | 257 | 1.0 | 4.0 | 0.00 | 0.00 | 0.00 | 42 | 1017.3 |
| 20260905015004 | 78 | 164 | 1.0 | 3.0 | 0.00 | 0.00 | 0.00 | 41 | 1017.3 |
| 20260905014504 | 78 | 201 | 1.0 | 2.0 | 0.00 | 0.00 | 0.00 | 40 | 1017.3 |
| 20260905014003 | 78 | 304 | 1.0 | 2.0 | 0.00 | 0.00 | 0.00 | 40 | 1017.3 |
| 20260905013504 | 78 | 267 | 1.0 | 2.0 | 0.00 | 0.00 | 0.00 | 39 | 1017.4 |
| 20260905013003 | 78 | 225 | 1.0 | 2.0 | 0.00 | 0.00 | 0.00 | 39 | 1017.2 |
| 20260905012504 | 78 | 27 | 1.0 | 3.0 | 0.00 | 0.00 | 0.00 | 39 | 1017.2 |
| 20260905012004 | 78 | 0 | 0.0 | 3.0 | 0.00 | 0.00 | 0.00 | 39 | 1017.1 |
| 20260905011503 | 78 | 0 | 0.0 | 2.0 | 0.00 | 0.00 | 0.00 | 38 | 1017.1 |
| 20260905011003 | 78 | 0 | 0.0 | 2.0 | 0.00 | 0.00 | 0.00 | 39 | 1017.0 |
| 20260905010503 | 78 | 0 | 0.0 | 2.0 | 0.00 | 0.00 | 0.00 | 38 | 1017.1 |
| 20260905010004 | 78 | 0 | 0.0 | 2.0 | 0.00 | 0.00 | 0.00 | 37 | 1017.1 |
| 20260905005503 | 78 | 0 | 0.0 | 3.0 | 0.00 | 0.00 | 0.00 | 37 | 1017.2 |
| 20260905005003 | 78 | 0 | 0.0 | 4.0 | 0.00 | 0.00 | 0.00 | 37 | 1017.0 |
| 20260905004503 | 78 | 0 | 0.0 | 4.0 | 0.00 | 0.00 | 0.00 | 37 | 1017.0 |
| 20260905004003 | 78 | 55 | 1.0 | 4.0 | 0.00 | 0.00 | 0.00 | 37 | 1016.9 |
| 20260905003504 | 78 | 52 | 1.0 | 4.0 | 0.00 | 0.00 | 0.00 | 37 | 1016.9 |
| 20260905003004 | 78 | 165 | 2.0 | 4.0 | 0.00 | 0.00 | 0.00 | 37 | 1016.9 |
| 20260905002503 | 78 | 199 | 1.0 | 4.0 | 0.00 | 0.00 | 0.00 | 37 | 1016.8 |
| 20260905002004 | 78 | 245 | 2.0 | 4.0 | 0.00 | 0.00 | 0.00 | 37 | 1016.6 |
| 20260905001504 | 78 | 0 | 0.0 | 4.0 | 0.00 | 0.00 | 0.00 | 36 | 1016.7 |
| 20260905001003 | 78 | 286 | 1.0 | 4.0 | 0.00 | 0.00 | 0.00 | 36 | 1016.6 |
| 20260905000504 | 79 | 236 | 2.0 | 4.0 | 0.00 | 0.00 | 0.00 | 35 | 1016.7 |
| 20260905000004 | 78 | 217 | 1.0 | 4.0 | 0.00 | 0.00 | 0.00 | 35 | 1016.6 |
| 20260904235503 | 79 | 213 | 2.0 | 4.0 | 0.00 | 0.00 | 0.00 | 35 | 1016.6 |
| 20260904235003 | 79 | 0 | 0.0 | 3.0 | 0.00 | 0.00 | 0.00 | 36 | 1016.6 |
| 20260904234503 | 79 | 332 | 2.0 | 4.0 | 0.00 | 0.00 | 0.00 | 35 | 1016.6 |
| 20260904234004 | 79 | 295 | 1.0 | 5.0 | 0.00 | 0.00 | 0.00 | 36 | 1016.5 |
| 20260904233504 | 79 | 286 | 2.0 | 5.0 | 0.00 | 0.00 | 0.00 | 36 | 1016.5 |
| 20260904233003 | 79 | 258 | 2.0 | 4.0 | 0.00 | 0.00 | 0.00 | 36 | 1016.5 |
| 20260904232503 | 79 | 287 | 2.0 | 5.0 | 0.00 | 0.00 | 0.00 | 37 | 1016.5 |
| 20260904232003 | 78 | 302 | 2.0 | 7.0 | 0.00 | 0.00 | 0.00 | 37 | 1016.5 |
| 20260904231504 | 79 | 266 | 1.0 | 7.0 | 0.00 | 0.00 | 0.00 | 37 | 1016.4 |
| 20260904231004 | 79 | 217 | 2.0 | 5.0 | 0.00 | 0.00 | 0.00 | 37 | 1016.3 |
| 20260904230503 | 79 | 235 | 2.0 | 5.0 | 0.00 | 0.00 | 0.00 | 37 | 1016.5 |
| 20260904230004 | 80 | 291 | 2.0 | 5.0 | 0.00 | 0.00 | 0.00 | 35 | 1016.3 |
| 20260904225504 | 80 | 288 | 2.0 | 7.0 | 0.00 | 0.00 | 0.00 | 34 | 1016.3 |
| 20260904225003 | 80 | 301 | 1.0 | 7.0 | 0.00 | 0.00 | 0.00 | 32 | 1016.4 |
| 20260904224504 | 80 | 301 | 1.0 | 6.0 | 0.00 | 0.00 | 0.00 | 31 | 1016.4 |
| 20260904224004 | 80 | 260 | 2.0 | 6.0 | 0.00 | 0.00 | 0.00 | 30 | 1016.5 |
| 20260904223503 | 80 | 239 | 2.0 | 6.0 | 0.00 | 0.00 | 0.00 | 29 | 1016.4 |
| 20260904223003 | 80 | 270 | 1.0 | 5.0 | 0.00 | 0.00 | 0.00 | 27 | 1016.5 |
| 20260904222503 | 80 | 285 | 1.0 | 5.0 | 0.00 | 0.00 | 0.00 | 25 | 1016.6 |
| 20260904222004 | 81 | 285 | 2.0 | 4.0 | 0.00 | 0.00 | 0.00 | 22 | 1016.5 |
| 20260904221504 | 81 | 242 | 2.0 | 4.0 | 0.00 | 0.00 | 0.00 | 20 | 1016.4 |
| 20260904221003 | 82 | 261 | 2.0 | 4.0 | 0.00 | 0.00 | 0.00 | 19 | 1016.4 |
| 20260904220503 | 82 | 11 | 2.0 | 5.0 | 0.00 | 0.00 | 0.00 | 18 | 1016.6 |
| 20260904220004 | 82 | 30 | 1.0 | 5.0 | 0.00 | 0.00 | 0.00 | 18 | 1016.6 |
| 20260904215503 | 82 | 33 | 2.0 | 4.0 | 0.00 | 0.00 | 0.00 | 18 | 1016.6 |
| 20260904215004 | 82 | 35 | 2.0 | 4.0 | 0.00 | 0.00 | 0.00 | 18 | 1016.7 |
| 20260904214503 | 82 | 0 | 0.0 | 4.0 | 0.00 | 0.00 | 0.00 | 18 | 1016.7 |
| 20260904214003 | 82 | 25 | 2.0 | 4.0 | 0.00 | 0.00 | 0.00 | 18 | 1016.7 |
| 20260904213504 | 82 | 0 | 0.0 | 4.0 | 0.00 | 0.00 | 0.00 | 18 | 1016.7 |
| 20260904213003 | 82 | 0 | 0.0 | 4.0 | 0.00 | 0.00 | 0.00 | 17 | 1016.6 |
| 20260904212503 | 82 | 0 | 0.0 | 3.0 | 0.00 | 0.00 | 0.00 | 17 | 1016.7 |
| 20260904212004 | 82 | 0 | 0.0 | 2.0 | 0.00 | 0.00 | 0.00 | 18 | 1016.6 |
| 20260904211503 | 82 | 0 | 0.0 | 2.0 | 0.00 | 0.00 | 0.00 | 17 | 1016.5 |
| 20260904211004 | 82 | 0 | 0.0 | 4.0 | 0.00 | 0.00 | 0.00 | 17 | 1016.4 |
| 20260904210503 | 82 | 0 | 0.0 | 4.0 | 0.00 | 0.00 | 0.00 | 17 | 1016.5 |
| 20260904210003 | 83 | 0 | 0.0 | 4.0 | 0.00 | 0.00 | 0.00 | 17 | 1016.5 |
| 20260904205503 | 83 | 0 | 0.0 | 4.0 | 0.00 | 0.00 | 0.00 | 16 | 1016.4 |
| 20260904205004 | 83 | 91 | 1.0 | 4.0 | 0.00 | 0.00 | 0.00 | 16 | 1016.5 |
| 20260904204503 | 83 | 0 | 0.0 | 4.0 | 0.00 | 0.00 | 0.00 | 18 | 1016.4 |
| 20260904204003 | 83 | 159 | 1.0 | 4.0 | 0.00 | 0.00 | 0.00 | 23 | 1016.4 |
| 20260904203503 | 83 | 181 | 1.0 | 4.0 | 0.00 | 0.00 | 0.00 | 26 | 1016.3 |
| 20260904203004 | 83 | 0 | 0.0 | 4.0 | 0.00 | 0.00 | 0.00 | 24 | 1016.3 |
| 20260904202503 | 84 | 181 | 2.0 | 4.0 | 0.00 | 0.00 | 0.00 | 24 | 1016.2 |
| 20260904202004 | 84 | 166 | 2.0 | 5.0 | 0.00 | 0.00 | 0.00 | 21 | 1016.2 |
| 20260904201504 | 85 | 109 | 1.0 | 5.0 | 0.00 | 0.00 | 0.00 | 18 | 1016.1 |
| 20260904201004 | 85 | 0 | 0.0 | 4.0 | 0.00 | 0.00 | 0.00 | 14 | 1016.1 |
| 20260904200503 | 85 | 2 | 2.0 | 4.0 | 0.00 | 0.00 | 0.00 | 16 | 1016.1 |
| 20260904200003 | 85 | 0 | 0.0 | 4.0 | 0.00 | 0.00 | 0.00 | 14 | 1016.1 |
| 20260904195504 | 85 | 29 | 2.0 | 4.0 | 0.00 | 0.00 | 0.00 | 14 | 1016.0 |
| 20260904195003 | 85 | 0 | 0.0 | 4.0 | 0.00 | 0.00 | 0.00 | 13 | 1016.0 |
| 20260904194503 | 85 | 0 | 0.0 | 4.0 | 0.00 | 0.00 | 0.00 | 14 | 1016.0 |
| 20260904194003 | 85 | 119 | 1.0 | 3.0 | 0.00 | 0.00 | 0.00 | 14 | 1016.0 |
| 20260904193504 | 84 | 0 | 0.0 | 3.0 | 0.00 | 0.00 | 0.00 | 14 | 1016.1 |
| 20260904193003 | 84 | 0 | 0.0 | 2.0 | 0.00 | 0.00 | 0.00 | 15 | 1016.1 |
| 20260904192503 | 84 | 0 | 0.0 | 2.0 | 0.00 | 0.00 | 0.00 | 15 | 1016.1 |
| 20260904192004 | 84 | 0 | 0.0 | 2.0 | 0.00 | 0.00 | 0.00 | 14 | 1016.0 |
| 20260904191503 | 84 | 0 | 0.0 | 2.0 | 0.00 | 0.00 | 0.00 | 14 | 1016.1 |
| 20260904191004 | 85 | 0 | 0.0 | 1.0 | 0.00 | 0.00 | 0.00 | 14 | 1016.0 |
| 20260904190503 | 85 | 0 | 0.0 | 2.0 | 0.00 | 0.00 | 0.00 | 13 | 1016.0 |
| 20260904190004 | 85 | 0 | 0.0 | 2.0 | 0.00 | 0.00 | 0.00 | 13 | 1016.0 |
| 20260904185503 | 85 | 0 | 0.0 | 2.0 | 0.00 | 0.00 | 0.00 | 13 | 1016.0 |
| 20260904185003 | 86 | 0 | 0.0 | 2.0 | 0.00 | 0.00 | 0.00 | 12 | 1015.9 |
| 20260904184503 | 86 | 0 | 0.0 | 4.0 | 0.00 | 0.00 | 0.00 | 12 | 1015.9 |
| 20260904184004 | 86 | 55 | 1.0 | 4.0 | 0.00 | 0.00 | 0.00 | 12 | 1015.9 |
| 20260904183504 | 86 | 0 | 0.0 | 3.0 | 0.00 | 0.00 | 0.00 | 12 | 1015.8 |
| 20260904183003 | 86 | 53 | 2.0 | 4.0 | 0.00 | 0.00 | 0.00 | 13 | 1015.8 |
| 20260904182503 | 86 | 41 | 1.0 | 4.0 | 0.00 | 0.00 | 0.00 | 12 | 1015.8 |
| 20260904182004 | 86 | 0 | 0.0 | 3.0 | 0.00 | 0.00 | 0.00 | 12 | 1015.6 |
| 20260904181504 | 87 | 19 | 1.0 | 3.0 | 0.00 | 0.00 | 0.00 | 12 | 1015.5 |
| 20260904181003 | 87 | 30 | 1.0 | 3.0 | 0.00 | 0.00 | 0.00 | 11 | 1015.6 |
| 20260904180503 | 88 | 44 | 1.0 | 3.0 | 0.00 | 0.00 | 0.00 | 11 | 1015.4 |
| 20260904180004 | 88 | 18 | 1.0 | 3.0 | 0.00 | 0.00 | 0.00 | 10 | 1015.3 |
| 20260904175504 | 88 | 346 | 1.0 | 4.0 | 0.00 | 0.00 | 0.00 | 10 | 1015.3 |
| 20260904175004 | 89 | 0 | 0.0 | 4.0 | 0.00 | 0.00 | 0.00 | 10 | 1015.2 |
| 20260904174503 | 89 | 0 | 0.0 | 4.0 | 0.00 | 0.00 | 0.00 | 10 | 1015.2 |
| 20260904174003 | 89 | 0 | 0.0 | 3.0 | 0.00 | 0.00 | 0.00 | 10 | 1015.1 |
| 20260904173504 | 90 | 163 | 1.0 | 4.0 | 0.00 | 0.00 | 0.00 | 10 | 1015.2 |
| 20260904173004 | 90 | 0 | 0.0 | 4.0 | 0.00 | 0.00 | 0.00 | 10 | 1015.0 |
| 20260904172503 | 90 | 244 | 2.0 | 5.0 | 0.00 | 0.00 | 0.00 | 10 | 1014.9 |
| 20260904172003 | 90 | 248 | 2.0 | 7.0 | 0.00 | 0.00 | 0.00 | 10 | 1014.8 |
| 20260904171504 | 90 | 311 | 2.0 | 7.0 | 0.00 | 0.00 | 0.00 | 10 | 1014.7 |
| 20260904171004 | 90 | 25 | 1.0 | 5.0 | 0.00 | 0.00 | 0.00 | 10 | 1014.7 |
| 20260904170503 | 90 | 52 | 1.0 | 4.0 | 0.00 | 0.00 | 0.00 | 10 | 1014.7 |
| 20260904170003 | 92 | 35 | 1.0 | 4.0 | 0.00 | 0.00 | 0.00 | 10 | 1014.4 |
| 20260904165504 | 92 | 240 | 1.0 | 5.0 | 0.00 | 0.00 | 0.00 | 10 | 1014.4 |
| 20260904165004 | 91 | 250 | 2.0 | 5.0 | 0.00 | 0.00 | 0.00 | 10 | 1014.4 |
| 20260904164503 | 92 | 299 | 1.0 | 6.0 | 0.00 | 0.00 | 0.00 | 10 | 1014.4 |
| 20260904164003 | 92 | 325 | 2.0 | 6.0 | 0.00 | 0.00 | 0.00 | 10 | 1014.5 |
| 20260904163503 | 92 | 356 | 3.0 | 5.0 | 0.00 | 0.00 | 0.00 | 10 | 1014.5 |
| 20260904163003 | 92 | 0 | 0.0 | 4.0 | 0.00 | 0.00 | 0.00 | 10 | 1014.5 |
| 20260904162503 | 93 | 0 | 0.0 | 4.0 | 0.00 | 0.00 | 0.00 | 10 | 1014.4 |
| 20260904162003 | 93 | 0 | 0.0 | 6.0 | 0.00 | 0.00 | 0.00 | 10 | 1014.4 |
| 20260904161504 | 93 | 344 | 1.0 | 6.0 | 0.00 | 0.00 | 0.00 | 10 | 1014.4 |
| 20260904161004 | 94 | 324 | 2.0 | 6.0 | 0.00 | 0.00 | 0.00 | 10 | 1014.4 |
| 20260904160503 | 94 | 214 | 1.0 | 4.0 | 0.00 | 0.00 | 0.00 | 10 | 1014.4 |
| 20260904160003 | 94 | 0 | 0.0 | 5.0 | 0.00 | 0.00 | 0.00 | 10 | 1014.4 |
| 20260904155504 | 94 | 0 | 0.0 | 5.0 | 0.00 | 0.00 | 0.00 | 10 | 1014.4 |
| 20260904155003 | 95 | 281 | 1.0 | 8.0 | 0.00 | 0.00 | 0.00 | 10 | 1014.5 |
| 20260904154503 | 95 | 0 | 0.0 | 8.0 | 0.00 | 0.00 | 0.00 | 10 | 1014.4 |
| 20260904154004 | 95 | 270 | 1.0 | 8.0 | 0.00 | 0.00 | 0.00 | 10 | 1014.3 |
| 20260904153503 | 96 | 287 | 2.0 | 8.0 | 0.00 | 0.00 | 0.00 | 10 | 1014.2 |
| 20260904153003 | 96 | 317 | 1.0 | 8.0 | 0.00 | 0.00 | 0.00 | 10 | 1014.3 |
| 20260904152503 | 97 | 0 | 0.0 | 11.0 | 0.00 | 0.00 | 0.00 | 10 | 1014.2 |
| 20260904152004 | 98 | 277 | 2.0 | 11.0 | 0.00 | 0.00 | 0.00 | 10 | 1014.1 |
| 20260904151503 | 98 | 291 | 4.0 | 8.0 | 0.00 | 0.00 | 0.00 | 10 | 1014.2 |
| 20260904151003 | 99 | 323 | 4.0 | 8.0 | 0.00 | 0.00 | 0.00 | 10 | 1014.2 |
| 20260904150503 | 99 | 290 | 1.0 | 8.0 | 0.00 | 0.00 | 0.00 | 10 | 1014.2 |
| 20260904150004 | 99 | 264 | 2.0 | 8.0 | 0.00 | 0.00 | 0.00 | 10 | 1014.2 |
| 20260904145503 | 99 | 315 | 3.0 | 8.0 | 0.00 | 0.00 | 0.00 | 10 | 1014.3 |
| 20260904145003 | 100 | 291 | 3.0 | 7.0 | 0.00 | 0.00 | 0.00 | 10 | 1014.3 |
| 20260904144503 | 101 | 217 | 2.0 | 6.0 | 0.00 | 0.00 | 0.00 | 10 | 1014.3 |
| 20260904144004 | 100 | 208 | 1.0 | 7.0 | 0.00 | 0.00 | 0.00 | 10 | 1014.3 |
| 20260904143504 | 101 | 110 | 2.0 | 7.0 | 0.00 | 0.00 | 0.00 | 10 | 1014.4 |
| 20260904143004 | 103 | 110 | 2.0 | 6.0 | 0.00 | 0.00 | 0.00 | 10 | 1014.2 |
| 20260904142504 | 102 | 128 | 2.0 | 5.0 | 0.00 | 0.00 | 0.00 | 10 | 1014.2 |
| 20260904142004 | 101 | 154 | 3.0 | 6.0 | 0.00 | 0.00 | 0.00 | 10 | 1014.4 |
| 20260904141503 | 101 | 192 | 3.0 | 6.0 | 0.00 | 0.00 | 0.00 | 10 | 1014.4 |
| 20260904141004 | 101 | 185 | 2.0 | 7.0 | 0.00 | 0.00 | 0.00 | 10 | 1014.4 |
| 20260904140504 | 101 | 183 | 1.0 | 7.0 | 0.00 | 0.00 | 0.00 | 10 | 1014.4 |
| 20260904140003 | 101 | 227 | 2.0 | 8.0 | 0.00 | 0.00 | 0.00 | 10 | 1014.4 |
| 20260904135503 | 100 | 187 | 1.0 | 8.0 | 0.00 | 0.00 | 0.00 | 10 | 1014.3 |
| 20260904135004 | 100 | 168 | 2.0 | 7.0 | 0.00 | 0.00 | 0.00 | 10 | 1014.5 |
| 20260904134503 | 99 | 0 | 0.0 | 6.0 | 0.00 | 0.00 | 0.00 | 10 | 1014.5 |
| 20260904134003 | 101 | 339 | 2.0 | 6.0 | 0.00 | 0.00 | 0.00 | 10 | 1014.6 |
| 20260904133503 | 102 | 356 | 2.0 | 9.0 | 0.00 | 0.00 | 0.00 | 10 | 1014.5 |
| 20260904133004 | 101 | 0 | 0.0 | 9.0 | 0.00 | 0.00 | 0.00 | 10 | 1014.6 |
| 20260904132503 | 101 | 282 | 2.0 | 7.0 | 0.00 | 0.00 | 0.00 | 10 | 1014.5 |
| 20260904132004 | 100 | 210 | 1.0 | 6.0 | 0.00 | 0.00 | 0.00 | 10 | 1014.6 |
| 20260904131503 | 100 | 37 | 3.0 | 8.0 | 0.00 | 0.00 | 0.00 | 10 | 1014.5 |
| 20260904131004 | 98 | 29 | 3.0 | 9.0 | 0.00 | 0.00 | 0.00 | 10 | 1014.5 |
| 20260904130503 | 97 | 283 | 2.0 | 11.0 | 0.00 | 0.00 | 0.00 | 10 | 1014.6 |
| 20260904130003 | 98 | 280 | 2.0 | 11.0 | 0.00 | 0.00 | 0.00 | 10 | 1014.5 |
| 20260904125503 | 100 | 123 | 2.0 | 5.0 | 0.00 | 0.00 | 0.00 | 10 | 1014.7 |
| 20260904125004 | 99 | 174 | 2.0 | 11.0 | 0.00 | 0.00 | 0.00 | 10 | 1014.7 |
| 20260904124504 | 98 | 185 | 2.0 | 11.0 | 0.00 | 0.00 | 0.00 | 10 | 1014.7 |
| 20260904124003 | 97 | 144 | 2.0 | 6.0 | 0.00 | 0.00 | 0.00 | 10 | 1014.8 |
| 20260904123503 | 98 | 0 | 0.0 | 9.0 | 0.00 | 0.00 | 0.00 | 10 | 1014.8 |
| 20260904123004 | 98 | 285 | 2.0 | 9.0 | 0.00 | 0.00 | 0.00 | 10 | 1014.9 |
| 20260904122503 | 98 | 257 | 1.0 | 7.0 | 0.00 | 0.00 | 0.00 | 10 | 1014.9 |
| 20260904122003 | 100 | 83 | 1.0 | 5.0 | 0.00 | 0.00 | 0.00 | 10 | 1015.1 |
| 20260904121504 | 100 | 0 | 0.0 | 5.0 | 0.00 | 0.00 | 0.00 | 10 | 1015.1 |
| 20260904121004 | 99 | 0 | 0.0 | 5.0 | 0.00 | 0.00 | 0.00 | 10 | 1015.3 |
| 20260904120503 | 98 | 0 | 0.0 | 6.0 | 0.00 | 0.00 | 0.00 | 10 | 1015.3 |
| 20260904120003 | 97 | 317 | 2.0 | 6.0 | 0.00 | 0.00 | 0.00 | 10 | 1015.4 |
| 20260904115503 | 96 | 41 | 1.0 | 3.0 | 0.00 | 0.00 | 0.00 | 10 | 1015.4 |
| 20260904115004 | 97 | 14 | 1.0 | 8.0 | 0.00 | 0.00 | 0.00 | 10 | 1015.6 |
| 20260904114503 | 96 | 318 | 1.0 | 8.0 | 0.00 | 0.00 | 0.00 | 10 | 1015.6 |
| 20260904114003 | 97 | 0 | 0.0 | 8.0 | 0.00 | 0.00 | 0.00 | 10 | 1015.6 |
| 20260904113503 | 98 | 329 | 2.0 | 8.0 | 0.00 | 0.00 | 0.00 | 10 | 1015.7 |
| 20260904113004 | 99 | 249 | 1.0 | 7.0 | 0.00 | 0.00 | 0.00 | 10 | 1015.7 |
| 20260904112504 | 99 | 232 | 2.0 | 8.0 | 0.00 | 0.00 | 0.00 | 10 | 1015.6 |
| 20260904112004 | 98 | 249 | 1.0 | 8.0 | 0.00 | 0.00 | 0.00 | 10 | 1015.6 |
| 20260904111503 | 98 | 313 | 2.0 | 6.0 | 0.00 | 0.00 | 0.00 | 10 | 1015.7 |
| 20260904111003 | 99 | 310 | 1.0 | 6.0 | 0.00 | 0.00 | 0.00 | 10 | 1015.8 |
| 20260904110503 | 99 | 272 | 2.0 | 8.0 | 0.00 | 0.00 | 0.00 | 10 | 1015.7 |
| 20260904110004 | 98 | 253 | 2.0 | 8.0 | 0.00 | 0.00 | 0.00 | 10 | 1015.8 |
| 20260904105503 | 99 | 252 | 3.0 | 4.0 | 0.00 | 0.00 | 0.00 | 10 | 1015.8 |
| 20260904105003 | 99 | 45 | 2.0 | 4.0 | 0.00 | 0.00 | 0.00 | 10 | 1015.9 |
| 20260904104504 | 98 | 0 | 0.0 | 4.0 | 0.00 | 0.00 | 0.00 | 10 | 1016.0 |
| 20260904104003 | 98 | 233 | 1.0 | 4.0 | 0.00 | 0.00 | 0.00 | 10 | 1016.1 |
| 20260904103503 | 97 | 0 | 0.0 | 5.0 | 0.00 | 0.00 | 0.00 | 10 | 1016.1 |
| 20260904103003 | 96 | 256 | 2.0 | 6.0 | 0.00 | 0.00 | 0.00 | 10 | 1016.1 |
| 20260904102504 | 96 | 284 | 3.0 | 7.0 | 0.00 | 0.00 | 0.00 | 10 | 1016.1 |
| 20260904102003 | 97 | 298 | 2.0 | 7.0 | 0.00 | 0.00 | 0.00 | 10 | 1016.1 |
| 20260904101503 | 97 | 234 | 1.0 | 5.0 | 0.00 | 0.00 | 0.00 | 10 | 1016.1 |
| 20260904101003 | 97 | 239 | 2.0 | 5.0 | 0.00 | 0.00 | 0.00 | 10 | 1016.2 |
| 20260904100503 | 97 | 0 | 0.0 | 4.0 | 0.00 | 0.00 | 0.00 | 11 | 1016.2 |
| 20260904100004 | 96 | 175 | 1.0 | 4.0 | 0.00 | 0.00 | 0.00 | 11 | 1016.3 |
| 20260904095503 | 96 | 220 | 1.0 | 4.0 | 0.00 | 0.00 | 0.00 | 13 | 1016.4 |
| 20260904095003 | 96 | 192 | 1.0 | 4.0 | 0.00 | 0.00 | 0.00 | 12 | 1016.4 |
| 20260904094504 | 96 | 18 | 1.0 | 4.0 | 0.00 | 0.00 | 0.00 | 14 | 1016.4 |
| 20260904094003 | 94 | 42 | 1.0 | 4.0 | 0.00 | 0.00 | 0.00 | 15 | 1016.5 |
| 20260904093503 | 94 | 146 | 1.0 | 5.0 | 0.00 | 0.00 | 0.00 | 15 | 1016.6 |
| 20260904093003 | 94 | 287 | 2.0 | 8.0 | 0.00 | 0.00 | 0.00 | 16 | 1016.6 |
| 20260904092504 | 94 | 312 | 1.0 | 8.0 | 0.00 | 0.00 | 0.00 | 17 | 1016.6 |
| 20260904092004 | 94 | 262 | 2.0 | 5.0 | 0.00 | 0.00 | 0.00 | 17 | 1016.7 |
| 20260904091504 | 93 | 0 | 0.0 | 5.0 | 0.00 | 0.00 | 0.00 | 17 | 1016.7 |
| 20260904091003 | 93 | 0 | 0.0 | 5.0 | 0.00 | 0.00 | 0.00 | 18 | 1016.8 |
| 20260904090504 | 93 | 318 | 2.0 | 6.0 | 0.00 | 0.00 | 0.00 | 20 | 1016.8 |
| 20260904090004 | 92 | 0 | 0.0 | 6.0 | 0.00 | 0.00 | 0.00 | 20 | 1016.8 |
| 20260904085503 | 92 | 0 | 0.0 | 5.0 | 0.00 | 0.00 | 0.00 | 20 | 1016.8 |
| 20260904085003 | 91 | 0 | 0.0 | 7.0 | 0.00 | 0.00 | 0.00 | 21 | 1016.9 |
| 20260904084504 | 91 | 104 | 1.0 | 7.0 | 0.00 | 0.00 | 0.00 | 22 | 1016.9 |
| 20260904084003 | 91 | 85 | 2.0 | 5.0 | 0.00 | 0.00 | 0.00 | 21 | 1017.0 |
| 20260904083503 | 91 | 62 | 1.0 | 5.0 | 0.00 | 0.00 | 0.00 | 22 | 1017.1 |
| 20260904083003 | 90 | 0 | 0.0 | 4.0 | 0.00 | 0.00 | 0.00 | 21 | 1017.0 |
| 20260904082503 | 89 | 0 | 0.0 | 6.0 | 0.00 | 0.00 | 0.00 | 20 | 1017.0 |
| 20260904082004 | 89 | 169 | 1.0 | 7.0 | 0.00 | 0.00 | 0.00 | 20 | 1017.1 |
| 20260904081503 | 89 | 126 | 2.0 | 7.0 | 0.00 | 0.00 | 0.00 | 20 | 1017.1 |
| 20260904081004 | 88 | 0 | 0.0 | 8.0 | 0.00 | 0.00 | 0.00 | 20 | 1017.1 |
| 20260904080503 | 88 | 170 | 2.0 | 8.0 | 0.00 | 0.00 | 0.00 | 21 | 1017.2 |
| 20260904080003 | 88 | 0 | 0.0 | 6.0 | 0.00 | 0.00 | 0.00 | 23 | 1017.1 |
| 20260904075503 | 88 | 112 | 2.0 | 5.0 | 0.00 | 0.00 | 0.00 | 24 | 1017.2 |
| 20260904075004 | 87 | 165 | 2.0 | 6.0 | 0.00 | 0.00 | 0.00 | 25 | 1017.0 |
| 20260904074503 | 87 | 49 | 2.0 | 6.0 | 0.00 | 0.00 | 0.00 | 26 | 1016.9 |
| 20260904074003 | 87 | 21 | 2.0 | 6.0 | 0.00 | 0.00 | 0.00 | 27 | 1016.8 |
| 20260904073503 | 86 | 352 | 1.0 | 6.0 | 0.00 | 0.00 | 0.00 | 27 | 1016.7 |
| 20260904073003 | 86 | 282 | 1.0 | 6.0 | 0.00 | 0.00 | 0.00 | 28 | 1016.7 |
| 20260904072503 | 85 | 260 | 2.0 | 6.0 | 0.00 | 0.00 | 0.00 | 28 | 1016.7 |
| 20260904072004 | 85 | 244 | 1.0 | 8.0 | 0.00 | 0.00 | 0.00 | 29 | 1016.8 |
| 20260904071503 | 85 | 270 | 4.0 | 9.0 | 0.00 | 0.00 | 0.00 | 28 | 1016.7 |
| 20260904071004 | 85 | 269 | 2.0 | 9.0 | 0.00 | 0.00 | 0.00 | 29 | 1016.7 |
| 20260904070503 | 85 | 246 | 2.0 | 8.0 | 0.00 | 0.00 | 0.00 | 30 | 1016.7 |
| 20260904070003 | 85 | 277 | 2.0 | 8.0 | 0.00 | 0.00 | 0.00 | 30 | 1016.5 |
| 20260904065503 | 84 | 291 | 2.0 | 5.0 | 0.00 | 0.00 | 0.00 | 32 | 1016.3 |
| 20260904065004 | 83 | 281 | 1.0 | 5.0 | 0.00 | 0.00 | 0.00 | 32 | 1016.2 |
| 20260904064503 | 83 | 241 | 2.0 | 4.0 | 0.00 | 0.00 | 0.00 | 34 | 1016.3 |
| 20260904064003 | 82 | 233 | 1.0 | 4.0 | 0.00 | 0.00 | 0.00 | 38 | 1016.2 |
| 20260904063504 | 81 | 315 | 2.0 | 4.0 | 0.00 | 0.00 | 0.00 | 40 | 1016.2 |
| 20260904063004 | 80 | 0 | 0.0 | 4.0 | 0.00 | 0.00 | 0.00 | 43 | 1016.2 |
| 20260904062503 | 80 | 212 | 1.0 | 3.0 | 0.00 | 0.00 | 0.00 | 44 | 1016.2 |
| 20260904062003 | 79 | 212 | 2.0 | 3.0 | 0.00 | 0.00 | 0.00 | 45 | 1016.2 |
| 20260904061503 | 79 | 0 | 0.0 | 3.0 | 0.00 | 0.00 | 0.00 | 47 | 1016.2 |
| 20260904061004 | 78 | 0 | 0.0 | 4.0 | 0.00 | 0.00 | 0.00 | 48 | 1016.3 |
| 20260904060503 | 78 | 0 | 0.0 | 4.0 | 0.00 | 0.00 | 0.00 | 48 | 1016.3 |
| 20260904060003 | 78 | 23 | 1.0 | 4.0 | 0.00 | 0.00 | 0.00 | 49 | 1016.2 |
| 20260904055503 | 78 | 0 | 0.0 | 5.0 | 0.00 | 0.00 | 0.00 | 49 | 1016.2 |
| 20260904055004 | 78 | 0 | 0.0 | 5.0 | 0.00 | 0.00 | 0.00 | 49 | 1016.4 |
| 20260904054503 | 77 | 35 | 1.0 | 5.0 | 0.00 | 0.00 | 0.00 | 51 | 1016.3 |
| 20260904054003 | 76 | 355 | 2.0 | 4.0 | 0.00 | 0.00 | 0.00 | 51 | 1016.3 |
| 20260904053504 | 76 | 353 | 1.0 | 4.0 | 0.00 | 0.00 | 0.00 | 51 | 1016.2 |
| 20260904053003 | 76 | 0 | 0.0 | 4.0 | 0.00 | 0.00 | 0.00 | 51 | 1016.2 |
| 20260904052503 | 76 | 160 | 1.0 | 4.0 | 0.00 | 0.00 | 0.00 | 51 | 1016.2 |
| 20260904052004 | 76 | 0 | 0.0 | 4.0 | 0.00 | 0.00 | 0.00 | 51 | 1016.3 |
| 20260904051503 | 76 | 3 | 1.0 | 4.0 | 0.00 | 0.00 | 0.00 | 50 | 1016.1 |